BSAT-4A

Last updated on Tue Sep 22 2026 00:03:14 GMT+0000 (Coordinated Universal Time)

1 42951U 17059B 26264.36825681 -.00000354 00000+0 00000+0 0 9993 2 42951 0.0492 2.8161 0001688 99.2291 140.6169 1.00273962 32766
UTC large
Height (km)
Speed (km/s)
/
Latitude / Longitude
Inclination (degrees)
Orbital Period (minutes)
Azimuth
Elevation
Range (km)
Doppler Factor

Next 0 passes for location: London (51.5072 / 0.1276)

No passes found over London.
BSAT-4A